STARLINK-34415 (64618 NORAD) Tracking and Keplerian Element Data

This shows tracking and keplerian element data for the satellite.

Feedback or suggestion? Click here.




ElementValue
Catalog64618
NameSTARLINK-34415
Epoch Orbit2855
Epoch Day354.22282297
Epoch Year2025
RAAN345.3808
Inclination53.1603
Eccentricity0.0001044
Argument of Perigee101.622
Mean Anonmoly258.4902
Mean Motion15.39651863
Decay Rate0.00044411
L11 64618U 25137AA 25354.22282297 .00044411 00000+0 11126-2 0 9992
L22 64618 53.1603 345.3808 0001044 101.6220 258.4902 15.39651863 28554



Live tracking and technical data element details for STARLINK-34415 (NORAD 64618). STARLINK-34415 can be tracked NOW for your location showing map with azimuth and elevation plus other details from your city location.







IsCatalogInMostPopularTable: catalog: 64618, numindb: 13
Update: records affected: 1



GetName: 64618 STARLINK-34415

Hit Count: updated at: Thu, 21 May 2026 11:51:00 GMT